Weather Roundup
Issued by NWS Springfield, MO

Home | Current Version | Previous Version | Text Only | Print | Product List | Glossary Off
Versions: 1 2 3 4 5 6 7 8 9 10 11 12 13 14 15 16 17 18 19 20 21 22 23 24 25 26 27 28 29 30 31 32 33 34 35 36 37 38 39 40 41 42 43 44 45 46 47 48 49 50

000
NZUS99 KSGF 040007
HRRSGF

HOURLY WEATHER
NATIONAL WEATHER SERVICE SPRINGFIELD MO
700 PM CDT SUN MAY 03 2015

......SGF CWA......

CITY           SKY/WX    TMP DP  RH WIND       PRES   REMARKS
SPRINGFIELD    CLOUDY    76  53  44 S12       29.93F
6HR MIN TEMP:  76; 6HR MAX TEMP:  82; 6HR PCP: TRACE;

JOPLIN         PTSUNNY   77  57  50 S23       29.92S
6HR MIN TEMP:  77; 6HR MAX TEMP:  81; 6HR PCP: TRACE;

WEST PLAINS    MOSUNNY   77  52  41 S9        30.00S
6HR MIN TEMP:  76; 6HR MAX TEMP:  79;

ROLLA          MOSUNNY   76  53  44 S13       29.93S
6HR MIN TEMP:  76; 6HR MAX TEMP:  82;

OSAGE BEACH    MOSUNNY   81  52  36 SW9       29.92S
BRANSON        PTSUNNY   75  55  50 CALM      29.99S

......SURROUNDING SGF CWA......

CITY           SKY/WX    TMP DP  RH WIND       PRES   REMARKS
CHANUTE        PTSUNNY   78  58  49 S18G25    29.88S
PARSONS        PTSUNNY   78  60  53 S15G22    29.91R
COFFEYVILLE    PTSUNNY   76  59  55 S13       29.90R
EMPORIA        PTSUNNY   79  55  43 S16       29.83R
GROVE OK       CLOUDY    77  57  50 S8        29.94S
ROGERS AR      PTSUNNY   76  56  49 S13       29.98S
SILOAM SPRINGS PTSUNNY   73  54  49 S10       29.98S
HARRISON AR    PTSUNNY   74  56  53 S6        29.99S
NEAR YELLVILLE MOSUNNY   79  55  44 S3        29.96S

......KANSAS AND MISSOURI......

CITY           SKY/WX    TMP DP  RH WIND       PRES   REMARKS
KANSAS CTY INT PTSUNNY   79  60  52 S17G24    29.82S
DOWNTOWN KC    PTSUNNY   80  58  46 S20G29    29.82S
COLUMBIA       PTSUNNY   78  57  48 S8        29.90F
SEDALIA        CLOUDY    78  55  44 SW14G24   29.91R
ST JOSEPH      SUNNY     82  59  45 S14       29.79S
ST LOUIS       CLOUDY    81  46  29 S9G20     29.94S
SPIRIT OF STL  CLOUDY    78  50  37 CALM      29.92S
KIRKSVILLE     SUNNY     78  57  48 SW16G23   29.86R
WICHITA        MOSUNNY   78  59  51 S21G32    29.83S
TOPEKA         MOSUNNY   83  56  39 S18G25    29.79S
OLATHE         PTSUNNY   78  58  49 S18G28    29.84S

......TENNESSEE......

CITY           SKY/WX    TMP DP  RH WIND       PRES   REMARKS
MEMPHIS        MOCLDY    79  48  33 SE8       30.04S
NASHVILLE      MOCLDY    75  49  39 SW7       30.09R

......ARKANSAS.......

CITY           SKY/WX    TMP DP  RH WIND       PRES   REMARKS
FAYETTEVILLE   PTSUNNY   75  59  57 S12G21    29.97F
FT SMITH       SUNNY     79  54  41 S7        29.95S
LITTLE ROCK    PTSUNNY   80  54  40 S8        30.00S

......OKLAHOMA.......

CITY           SKY/WX    TMP DP  RH WIND       PRES   REMARKS
TULSA          CLOUDY    79  57  46 S12       29.90S
PONCA CITY     PTSUNNY   78  57  48 S13G22    29.86F
MCALESTER      MOSUNNY   78  55  44 S13G21    29.95S
OKLAHOMA CITY  MOSUNNY   77  49  37 S15       29.90S

......IOWA............

CITY           SKY/WX    TMP DP  RH WIND       PRES   REMARKS
DES MOINES     PTSUNNY   80  57  45 S9        29.77F
QUAD CITIES    PTSUNNY   81  55  40 S9        29.83F

......ILLINOIS........

CITY           SKY/WX    TMP DP  RH WIND       PRES   REMARKS
QUINCY         PTSUNNY   77  53  43 S10       29.88S
CHICAGO        RAIN      63  59  87 NW12      29.96R FOG



USA.gov is the U.S. government's official web portal to all federal, state and local government web resources and services.